Regional Weather Roundup
Issued by NWS

Home | Current Version | Previous Version | Text Only | Print | Product List | Glossary Off
Versions: 1 2 3 4 5 6 7 8 9 10 11 12 13 14 15 16 17 18 19 20 21 22 23 24 25 26 27 28

000
ASUS45 KGTF 251210
RWRMT
MONTANA HOURLY WEATHER ROUNDUP
NATIONAL WEATHER SERVICE GREAT FALLS MT
600 AM MDT SAT APR 25 2015

NOTE: "FAIR" INDICATES FEW OR NO CLOUDS BELOW 12000 FEET WITH NO
SIGNIFICANT WEATHER AND/OR OBSTRUCTIONS TO VISIBILITY.

MTZ001>007-043-251300-
WEST OF THE DIVIDE

CITY           SKY/WX    TMP DP  RH WIND       PRES   REMARKS
KALISPELL      CLOUDY    29  26  89 NW3       29.82S
MISSOULA       CLOUDY    31  25  78 CALM      29.84R
BUTTE          CLOUDY    33  26  75 SE3       29.78S
DEER LODGE       N/A     34  25  69 CALM      29.82F
EUREKA           N/A     34  25  69 CALM      29.84S
HAMILTON         N/A     28  25  86 SE3       29.82R
LIBBY            N/A     27  25  93 CALM      29.85S
$$

MTZ008-052>055-251300-
SOUTHWEST MONTANA

CITY           SKY/WX    TMP DP  RH WIND       PRES   REMARKS
BOZEMAN        LGT SNOW  33  31  92 NW7       29.79S FOG     WCI  27
DILLON         LGT SNOW  33  31  92 E6        29.77S FOG     WCI  28
$$

MTZ009-010-012-014-046-048-049-054-251300-
EAST SLOPES AND CENTRAL MONTANA

CITY           SKY/WX    TMP DP  RH WIND       PRES   REMARKS
CUT BANK       CLOUDY    32  20  61 NW10      29.77  WCI  24
GREAT FALLS    CLOUDY    37  36  96 W14       29.77R WCI  28
HELENA         CLOUDY    41  28  60 CALM      29.78R
$$

MTZ011-013-016-021-045-047-050-051-251300-
NORTH CENTRAL MONTANA

CITY           SKY/WX    TMP DP  RH WIND       PRES   REMARKS
HAVRE          CLOUDY    44  26  49 W7        29.73S
LEWISTOWN      LGT RAIN  36  33  89 W8        29.76R WCI  30
CHINOOK          N/A     45  28  53 W9        29.72S
FORT BENTON      N/A     43  37  81 SW9       29.78R
$$

MTZ017>020-022>042-056>058-061-062-251300-
EASTERN PLAINS

CITY           SKY/WX    TMP DP  RH WIND       PRES   REMARKS
BAKER          PTCLDY    39  37  92 SE8       29.68R
BILLINGS       LGT RAIN  41  38  89 NW8       29.70R
GLASGOW        CLOUDY    48  38  68 NW15      29.60R
JORDAN           N/A     46  39  76 NW15      29.66R
LIVINGSTON     LGT SNOW  35  50 100 W14       29.75R WCI  26
MILES CITY     MOCLDY    48  37  65 S13       29.61R
SIDNEY         MOCLDY    48  39  71 E8        29.69S
WOLF POINT     CLOUDY    50  38  63 E13       29.64R
BIG TIMBER       N/A     36  34  93 SW16G23   29.75R WCI  26
FORSYTH          N/A     46  41  81 W10       29.62R
PLENTYWOOD       N/A     45  39  81 E20       29.69R
POPLAR           N/A     50  39  66 CALM      29.67R
$$

REGIONAL REPORTS...DAKOTAS

CITY           SKY/WX    TMP DP  RH WIND       PRES   REMARKS
WILLISTON      LGT RAIN  46  41  82 SE5       29.73R
MINOT          CLOUDY    37  35  92 CALM      29.79R FOG
DICKINSON      FOG       41  40  96 SE12      29.70S VSB 1/4
BEACH          FAIR      39  39 100 SE16G22   29.69R FOG     WCI  30
CROSBY         CLOUDY    43  43 100 SE9       29.75S FOG
WATFORD CITY   CLOUDY    41  41 100 SE15      29.71R FOG
BISMARCK       CLOUDY    44  41  89 E13       29.77R
GRAND FORKS    CLOUDY    44  32  62 E10       29.86R
FARGO          CLOUDY    43  37  79 E9        29.84R
BUFFALO SD       N/A     37  36  96 NE9       29.63R WCI  30
RAPID CITY     PTCLDY    40  37  89 N3        29.67R
$$

REGIONAL REPORTS...WYOMING/IDAHO/WASHINGTON

CITY           SKY/WX    TMP DP  RH WIND       PRES   REMARKS
GILLETTE       MOCLDY    44  38  79 S9        29.63S
SHERIDAN       CLOUDY    46  41  82 NW16      29.65R
BUFFALO WY     MOCLDY    43  39  86 NW14G26   29.64R
CODY           CLOUDY    39  36  87 N10       29.68R
YELLOWSTONE LA   N/A     29  25  85 S5        29.77R
IDAHO FALLS    CLOUDY    38  34  85 N3        29.79R
SALMON         PTCLDY    30  27  86 CALM      29.79S
BOISE          CLOUDY    41  33  73 S5        29.80R
SPOKANE        MOCLDY    36  30  79 SE12      29.81R WCI  28
$$

REGIONAL REPORTS...ALBERTA

CITY           SKY/WX    TMP DP  RH WIND       PRES   REMARKS
EDMONTON       CLOUDY    34  23  64 NE8       29.90  WCI  27
CALGARY        CLOUDY    34  32  93 N6        29.81R WCI  29
LETHBRIDGE     MOCLDY    34  32  93 W14       29.79R WCI  24
MEDICINE HAT   CLOUDY    39  37  93 W13       29.74R WCI  32
$$

REGIONAL REPORTS...SASKATCHEWAN

CITY           SKY/WX    TMP DP  RH WIND       PRES   REMARKS
SWIFT CURRENT  LGT RAIN  36  34  93 N8G24     29.73R FOG     WCI  29
REGINA         LGT RAIN  45  41  87 E17G25    29.72F
SASKATOON      CLOUDY    28  25  86 NE18G25   29.87R WCI  16
$$



USA.gov is the U.S. government's official web portal to all federal, state and local government web resources and services.